Friday Harbor, WA

5:31 PM PST on February 11, 2016 (GMT -0800)
Friday Harbor

Weather History for KFHR - August, 2013

Change the Weather History Date:

Tuesday, August 6, 2013

  Actual Average Record
Temperature  
Mean Temperature 56 °F -  
Max Temperature 66 °F 71 °F 79 °F (2008)
Min Temperature 45 °F 48 °F 45 °F (2013)
Degree Days  
Heating Degree Days 10    
Growing Degree Days 6 (Base 50)    
Moisture  
Dew Point 50 °F    
Average Humidity 86    
Maximum Humidity 100    
Minimum Humidity 60    
Precipitation  
Precipitation 0.00 in - - ()
Sea Level Pressure  
Sea Level Pressure 29.99 in    
Wind  
Wind Speed 2 mph (ESE)    
Max Wind Speed 7 mph    
Max Gust Speed -    
Visibility 6 miles    
Events Fog    
Averages and records for this station are not official NWS values.
T = Trace of Precipitation, MM = Missing Value Source: NWS Daily Summary

Daily Weather History Graph

Daily Weather History Graph

Search for Another Location

Airport or City:

Trip Planner

Search our weather history database for the weather conditions in past years. The results will help you decide how hot, cold, wet, or windy it might be!

Date:

Astronomy

Aug. 06, 2013 Rise Set
Actual Time 5:53 AM PDT 8:41 PM PDT
Civil Twilight 5:17 AM PDT 9:17 PM PDT
Nautical Twilight 4:31 AM PDT 10:02 PM PDT
Astronomical Twilight 3:36 AM PDT 10:57 PM PDT
Moon 5:55 AM PDT (8/6) 8:10 PM PDT (8/6)
Length of Visible Light 15h 59m
Length of Day
14h 47m
Waning Crescent, 0% of the Moon is Illuminated
Aug 6
Waning Crescent
Aug 6
New
Aug 14
First Quarter
Aug 20
Full
Aug 28
Last Quarter

Hourly Weather History & Observations

Time (PDT) Temp. Dew Point Humidity Pressure Visibility Wind Dir Wind Speed Gust Speed Precip Events Conditions
12:53 AM 48.9 °F 48.0 °F 97% 29.97 in 7.0 mi Calm Calm - N/A   Clear
1:53 AM 46.9 °F 46.0 °F 97% 29.98 in 6.0 mi Calm Calm - N/A   Clear
2:53 AM 45.0 °F 45.0 °F 100% 29.98 in 6.0 mi Calm Calm - N/A   Clear
3:53 AM 45.0 °F 44.1 °F 97% 29.98 in 5.0 mi Calm Calm - N/A   Clear
4:39 AM 46.4 °F 44.6 °F 93% 29.98 in 3.0 mi Calm Calm - N/A   Scattered Clouds
4:41 AM 46.4 °F 44.6 °F 93% 29.98 in 1.8 mi Calm Calm - N/A   Mostly Cloudy
4:53 AM 48.0 °F 46.9 °F 96% 29.98 in 0.5 mi Calm Calm - N/A Fog Fog
5:53 AM 50.0 °F 50.0 °F 100% 30.00 in 0.5 mi Calm Calm - N/A Fog Fog
6:53 AM 50.0 °F 50.0 °F 100% 30.01 in 0.2 mi East 4.6 mph - N/A Fog Fog
7:53 AM 50.0 °F 50.0 °F 100% 30.02 in 0.2 mi ESE 4.6 mph - N/A Fog Fog
8:53 AM 52.0 °F 51.1 °F 97% 30.03 in 0.5 mi ESE 4.6 mph - N/A Fog Fog
9:53 AM 53.1 °F 52.0 °F 96% 30.03 in 1.2 mi SE 5.8 mph - N/A   Overcast
10:53 AM 55.0 °F 51.1 °F 86% 30.04 in 1.0 mi SE 5.8 mph - N/A   Overcast
11:17 AM 57.2 °F 51.8 °F 82% 30.03 in 2.0 mi SE 5.8 mph - N/A   Haze
11:24 AM 57.2 °F 51.8 °F 82% 30.03 in 1.2 mi SE 6.9 mph - N/A   Haze
11:46 AM 55.4 °F 51.8 °F 88% 30.03 in 3.0 mi ESE 6.9 mph - N/A   Haze
11:53 AM 57.0 °F 51.1 °F 81% 30.03 in 6.0 mi ESE 5.8 mph - N/A   Haze
12:13 PM 59.0 °F 51.8 °F 77% 30.03 in 10.0 mi ESE 5.8 mph - N/A   Scattered Clouds
12:53 PM 59.0 °F 51.1 °F 75% 30.02 in 10.0 mi ESE 3.5 mph - N/A   Clear
1:53 PM 62.1 °F 52.0 °F 70% 30.01 in 10.0 mi ESE 4.6 mph - N/A   Clear
2:53 PM 64.0 °F 52.0 °F 65% 30.01 in 10.0 mi ESE 3.5 mph - N/A   Clear
3:53 PM 64.9 °F 52.0 °F 63% 29.99 in 10.0 mi ESE 3.5 mph - N/A   Clear
4:53 PM 64.0 °F 52.0 °F 65% 29.98 in 10.0 mi ESE 3.5 mph - N/A   Clear
5:53 PM 66.0 °F 52.0 °F 60% 29.96 in 10.0 mi Calm Calm - N/A   Clear
6:53 PM 62.1 °F 52.0 °F 70% 29.95 in 10.0 mi Calm Calm - N/A   Clear
7:53 PM 57.0 °F 51.1 °F 81% 29.94 in 10.0 mi Calm Calm - N/A   Clear
8:53 PM 53.1 °F 50.0 °F 89% 29.95 in 10.0 mi Calm Calm - N/A   Clear
9:53 PM 51.1 °F 48.9 °F 92% 29.96 in 10.0 mi Calm Calm - N/A   Clear
10:53 PM 48.9 °F 48.0 °F 97% 29.95 in 10.0 mi Calm Calm - N/A   Clear
11:53 PM 48.9 °F 48.0 °F 97% 29.96 in 10.0 mi Calm Calm - N/A   Clear